Location: Campo Claro
(10.4907°N, 66.8285°W)
Time: 08:32:18
(UTC+00:00)

CZ-4B R/B - Pass Details

Date: 08 December 2021
Orbit: 378 x 441 km, 97.6° (Epoch: 24 January)

Event Time Altitude Azimuth Distance (km) Brightness Sun altitude
Exits shadow 00:02:53 14° 218° (SW) 1,177 4.2 -27.7°
Drops below altitude 10° 00:03:25 10° 213° (SSW) 1,388 4.5 -27.9°
Sets 00:05:27 0° 204° (SSW) 2,244 5.6 -28.3°
